Overview Statistics Trail Chart Weather Telemetry Raw packets
 

This is the latest recevied weather packets stored in our database for station/object N5ATR. If no packets are shown the sender has not sent any weather packets the latest 10 day(s).

<< 75 76 77 78 79 80 81 >>
Time Temp. Humidity Pressure Rain* Wind** Luminosity Snow
1788150244 21.11° C 43% 1022.4 hPa 0 mm - 0 W/m² -
1788149939 21.11° C 44% 1022.3 hPa 0 mm - 0 W/m² -
1788149638 20.56° C 45% 1022.6 hPa 0 mm - 0 W/m² -
1788149334 20.56° C 45% 1022.6 hPa 0 mm - 0 W/m² -
1788149028 20.56° C 45% 1022.5 hPa 0 mm - 0 W/m² -
1788148726 21.11° C 44% 1022.5 hPa 0 mm - 0 W/m² -
1788148425 21.11° C 44% 1022.2 hPa 0 mm - 0 W/m² -
1788148120 21.67° C 43% 1022.4 hPa 0 mm - 0 W/m² -
1788147815 21.67° C 43% 1022.4 hPa 0 mm - 0 W/m² -
1788147511 21.67° C 42% 1022.4 hPa 0 mm - 0 W/m² -
1788147211 22.22° C 42% 1022.4 hPa 0 mm - 0 W/m² -
1788146907 22.22° C 42% 1022.6 hPa 0 mm - 0 W/m² -
1788146606 22.22° C 42% 1022.4 hPa 0 mm - 0 W/m² -
1788146301 22.22° C 42% 1022.3 hPa 0 mm - 0 W/m² -
1788146001 22.78° C 41% 1022.2 hPa 0 mm - 0 W/m² -
1788145696 22.78° C 41% 1022.3 hPa 0 mm - 0 W/m² -
1788145394 22.78° C 41% 1022.3 hPa 0 mm - 0 W/m² -
1788145094 22.22° C 42% 1022.4 hPa 0 mm - 0 W/m² -
1788144788 22.78° C 42% 1022.3 hPa 0 mm - 0 W/m² -
1788144499 22.78° C 41% 1022.2 hPa 0 mm - 0 W/m² -
1788144183 22.78° C 41% 1022.2 hPa 0 mm - 0 W/m² -
1788143882 22.78° C 42% 1022.2 hPa 0 mm - 0 W/m² -
1788143580 22.78° C 42% 1022 hPa 0 mm - 0 W/m² -
1788143276 22.78° C 42% 1021.9 hPa 0 mm - 0 W/m² -
1788142974 23.33° C 42% 1022 hPa 0 mm - 0 W/m² -

* Rain latest hour (hover to see other rain measurements)
** Current wind speed in m/s (hover to see current wind gust speed)